Wind_Speed
36 36 36 35 36 37 37 37 38 38 38 37 37 37 36 36 37 37 36 36 36 35 35 35 36 36 37 37 38 38 38 38 37 37 36 36 35 35
35 35 35 34 36 37 37 38 39 38 37 37 37 37 36 36 36 36 36 36 36 35 35 36 37 37 37 36 37 37 37 37 37 37 37 36 35 36
35 35 35 36 36 36 35 36 37 37 37 37 37 36 35 36 36 35 36 36 35 36 36 36 36 36 36 36 36 36 36 37 37 36 36 36 36 37
35 35 35 35 35 36 36 36 36 37 37 37 37 36 36 35 35 35 36 36 36 36 36 36 36 36 35 35 35 35 35 36 36 36 36 36 36 36
35 35 35 35 35 36 35 35 35 36 37 38 37 37 36 35 35 35 36 35 35 36 35 36 36 36 36 35 35 36 36 36 36 36 36 35 35 35
36 36 35 36 36 35 35 35 35 36 36 37 36 36 36 35 34 35 35 35 35 34 34 35 35 35 35 36 36 36 36 36 36 35 35 34 34 34
37 37 36 35 35 35 35 36 36 37 36 34 35 35 35 35 35 35 33 33 34 33 34 34 34 35 35 35 36 35 35 35 35 34 33 32 32 32
35 35 35 35 34 35 35 36 36 35 34 34 34 35 36 37 36 34 33 33 32 32 33 33 34 34 34 34 34 34 34 34 33 32 31 30 30 30
33 33 33 33 33 34 34 35 34 32 32 32 33 34 35 35 35 34 33 32 31 32 32 33 33 33 33 33 32 32 32 32 31 31 30 30 29 28
31 32 33 32 33 34 34 34 32 31 32 33 33 34 33 34 35 34 33 31 31 31 31 31 32 31 31 30 30 31 31 31 30 30 30 29 28 27
29 30 31 32 32 33 32 32 31 30 31 32 33 32 31 32 32 32 31 30 30 29 29 29 29 29 28 28 29 29 29 30 29 29 29 28 27 26
29 29 30 30 31 31 30 31 31 31 30 30 29 29 30 30 31 30 30 30 29 28 28 27 27 27 27 27 28 28 27 28 28 28 27 26 25 25
29 29 30 30 30 30 29 30 30 30 30 29 29 29 28 28 28 29 29 30 29 28 27 27 27 27 27 26 26 26 26 26 26 25 25 25 24 24
28 29 29 29 29 29 30 30 29 29 30 30 29 29 28 27 27 27 26 27 28 29 29 28 27 27 26 26 25 25 25 24 23 23 23 23 23 22
27 28 28 28 28 29 29 29 28 29 29 30 29 29 27 26 26 25 26 26 27 27 28 28 27 26 26 25 24 24 23 22 22 22 22 22 21 20
27 27 27 27 28 28 28 28 28 29 29 29 29 28 27 26 26 26 26 26 26 26 26 27 26 25 25 24 24 23 22 21 21 21 21 20 20 18
25 26 26 26 26 26 26 27 28 29 29 29 29 28 28 27 26 26 26 25 25 25 25 25 25 24 24 24 23 22 21 20 20 20 19 18 17 16
25 25 26 26 25 26 26 27 27 28 28 28 28 28 28 27 27 27 26 25 25 25 25 25 25 24 23 23 23 21 20 20 20 19 19 17 15 14
26 26 26 26 26 26 26 26 27 27 28 28 28 28 28 28 27 27 26 25 25 25 25 25 25 24 23 22 22 21 20 20 19 18 17 15 13 12
26 26 26 26 26 25 26 26 26 26 26 27 27 27 27 27 27 26 25 25 25 25 25 25 24 24 23 22 21 21 21 20 18 16 15 14 12 11
26 26 26 26 26 26 26 26 26 26 25 25 25 26 26 26 26 26 25 25 25 25 25 24 24 23 23 22 21 20 19 18 17 15 14 13 12 11
26 26 26 26 26 26 26 25 25 25 25 24 24 25 25 25 25 25 25 25 25 24 24 23 23 22 22 21 20 19 18 17 16 15 15 14 13 12
26 26 26 26 26 26 25 25 25 25 24 23 23 24 24 23 23 24 24 24 24 23 23 23 22 21 20 19 18 18 17 16 15 14 14 13 12 11
Wind_Direction
259 259 260 263 263 264 265 266 267 269 269 271 275 276 276 274 273 275 275 275 276 277 278 281 283 285 286 285 286 287 289 290 290 291 291 290 289 288
259 259 261 262 262 265 265 266 268 269 270 272 274 276 277 274 272 273 274 275 275 275 278 280 282 284 285 286 287 288 289 290 290 290 289 288 287 287
257 259 260 262 264 265 266 267 268 269 271 273 275 276 276 277 273 273 275 276 275 276 278 280 282 284 285 286 287 289 290 290 290 289 289 288 287 288
257 257 259 262 264 266 267 267 269 271 273 275 275 274 274 277 276 274 275 276 276 277 279 280 283 283 284 285 287 289 290 290 290 290 290 289 288 288
257 259 261 264 265 267 267 269 272 274 274 274 275 275 273 274 276 277 276 275 277 278 279 280 281 283 284 285 287 288 289 290 291 291 290 289 289 288
258 260 263 265 266 268 268 270 273 275 275 275 275 275 274 274 275 278 278 277 277 279 279 280 280 281 283 285 287 289 290 290 290 290 290 289 288 287
259 260 264 267 268 268 269 271 272 273 274 275 275 276 275 275 278 279 279 278 278 279 280 280 280 280 281 284 287 288 290 290 289 290 290 290 290 288
261 263 265 267 269 269 269 271 273 273 273 274 276 277 277 278 278 277 278 279 278 280 280 280 281 282 283 285 287 289 290 291 290 289 289 290 291 290
263 263 265 268 270 270 271 271 272 272 273 275 277 278 278 278 277 277 278 279 280 281 280 280 281 283 286 288 288 289 290 291 290 289 288 289 291 291
265 265 265 266 270 271 272 272 272 272 272 273 276 278 278 277 277 278 277 278 281 281 281 280 280 281 284 288 288 288 289 290 289 289 289 289 290 291
267 267 267 268 270 272 272 272 271 272 274 275 277 278 278 278 277 276 277 278 280 281 281 281 281 282 284 287 289 289 290 291 291 290 291 291 290 291
267 268 269 269 271 271 271 271 271 271 275 277 278 278 278 277 275 275 278 279 279 279 280 281 282 284 285 287 288 290 291 292 292 291 291 291 291 291
267 267 268 269 270 270 271 271 270 272 274 277 277 277 277 276 276 276 278 279 277 278 279 280 282 284 286 286 286 289 290 292 291 292 293 293 291 291
266 268 269 270 271 272 272 271 270 271 274 276 275 275 276 277 278 278 277 277 279 279 279 280 283 285 285 285 285 286 288 290 292 293 294 295 292 291
267 271 271 272 272 272 273 271 270 272 275 275 275 275 276 276 276 275 275 277 279 280 281 281 282 283 284 285 285 285 286 290 293 294 294 293 292 291
270 272 273 273 272 272 272 271 272 273 274 274 274 274 274 274 276 275 275 276 277 279 281 281 281 282 281 282 284 285 286 288 291 293 293 292 291 289
271 273 273 273 273 274 274 273 272 272 273 273 273 273 272 272 274 275 275 276 277 278 279 279 279 280 280 280 281 283 284 287 290 291 293 292 287 284
272 273 274 273 272 274 274 273 272 272 273 274 274 273 272 272 274 275 276 276 277 277 277 278 277 277 277 277 277 279 281 283 286 289 290 288 284 280
273 273 274 273 272 273 274 275 274 274 275 275 274 273 272 273 274 274 275 276 277 278 278 278 276 274 273 273 272 274 276 279 283 282 283 283 279 276
272 272 273 273 273 273 275 275 276 277 277 276 274 274 273 272 273 274 276 276 277 278 278 277 276 274 272 270 269 272 272 275 275 275 275 275 272 268
271 271 272 274 274 274 274 275 277 277 277 277 275 273 273 272 272 274 275 275 276 277 277 276 274 273 270 268 268 269 268 268 267 267 266 264 263 261
270 271 273 274 274 273 273 274 275 275 275 275 275 274 273 273 273 274 275 276 277 277 277 276 274 272 270 267 266 264 262 260 260 261 261 259 257 256
270 271 273 274 272 272 272 273 273 272 272 273 275 275 275 274 274 275 276 277 277 276 275 273 272 270 268 264 262 260 255 252 251 254 256 252 249 250
Height
5663 5664 5666 5667 5668 5669 5669 5669 5670 5670 5671 5670 5669 5668 5667 5666 5665 5664 5662 5661 5660 5659 5657 5656 5654 5651 5648 5646 5643 5640 5638 5635 5632 5629 5626 5623 5620 5617
5654 5655 5657 5658 5659 5659 5660 5660 5659 5660 5659 5660 5659 5658 5657 5656 5655 5654 5653 5652 5651 5650 5648 5646 5644 5642 5639 5636 5634 5631 5628 5626 5623 5620 5617 5614 5611 5608
5645 5647 5648 5649 5649 5650 5651 5651 5651 5650 5649 5649 5648 5648 5646 5645 5645 5644 5643 5642 5641 5640 5639 5637 5635 5632 5630 5627 5625 5622 5619 5616 5613 5611 5608 5605 5602 5599
5637 5638 5639 5640 5640 5641 5641 5642 5641 5640 5639 5639 5638 5637 5637 5636 5635 5634 5633 5632 5631 5630 5629 5627 5625 5623 5621 5618 5616 5613 5610 5607 5605 5602 5599 5596 5593 5590
5629 5630 5631 5631 5632 5632 5632 5632 5632 5631 5630 5629 5628 5627 5627 5626 5625 5624 5623 5622 5621 5620 5619 5618 5616 5614 5612 5609 5607 5604 5602 5599 5596 5592 5589 5586 5583 5580
5620 5621 5622 5622 5623 5623 5623 5623 5623 5622 5620 5619 5618 5618 5617 5617 5616 5615 5613 5612 5611 5610 5609 5608 5607 5605 5602 5600 5598 5595 5592 5589 5586 5583 5579 5576 5573 5570
5612 5612 5613 5613 5614 5614 5614 5614 5613 5612 5611 5610 5610 5609 5608 5607 5607 5605 5604 5603 5601 5600 5600 5598 5597 5596 5593 5591 5588 5585 5583 5580 5577 5574 5570 5567 5564 5561
5603 5604 5605 5605 5605 5605 5605 5604 5604 5603 5602 5601 5601 5600 5599 5598 5597 5596 5595 5594 5593 5593 5590 5589 5587 5586 5583 5581 5578 5576 5573 5571 5568 5565 5562 5559 5556 5553
5595 5595 5596 5596 5596 5597 5596 5596 5595 5594 5593 5593 5592 5591 5590 5589 5588 5587 5586 5585 5584 5583 5581 5580 5578 5576 5574 5571 5569 5567 5565 5562 5560 5557 5554 5552 5549 5546
5586 5587 5587 5588 5588 5588 5587 5586 5586 5585 5585 5584 5584 5582 5580 5579 5579 5578 5577 5576 5575 5573 5572 5571 5569 5568 5566 5563 5561 5559 5557 5554 5551 5549 5546 5544 5541 5538
5578 5578 5579 5579 5579 5579 5578 5578 5577 5576 5576 5575 5574 5573 5571 5570 5570 5569 5569 5568 5567 5565 5563 5562 5561 5559 5558 5556 5553 5551 5549 5546 5544 5541 5538 5536 5533 5531
5570 5570 5570 5570 5570 5569 5569 5569 5568 5568 5568 5567 5566 5564 5563 5562 5561 5561 5560 5560 5558 5558 5556 5555 5553 5551 5551 5549 5546 5544 5542 5539 5537 5534 5531 5528 5526 5524
5561 5562 5561 5561 5561 5560 5560 5560 5559 5559 5559 5558 5558 5557 5556 5555 5554 5553 5552 5551 5550 5550 5549 5547 5546 5544 5542 5542 5540 5537 5535 5533 5530 5527 5524 5522 5519 5517
5553 5553 5553 5552 5552 5552 5551 5551 5551 5551 5551 5550 5550 5549 5548 5547 5546 5545 5544 5543 5543 5542 5541 5539 5538 5537 5536 5534 5533 5531 5528 5526 5524 5521 5519 5516 5514 5512
5545 5545 5544 5544 5544 5543 5543 5542 5542 5542 5542 5542 5541 5541 5540 5539 5538 5537 5537 5536 5535 5534 5533 5531 5531 5530 5528 5527 5526 5524 5523 5520 5518 5516 5513 5511 5509 5507
5537 5537 5536 5535 5535 5535 5534 5534 5534 5534 5533 5533 5533 5532 5532 5531 5531 5530 5529 5528 5528 5527 5525 5524 5523 5522 5521 5520 5519 5517 5516 5514 5512 5510 5508 5506 5504 5502
5529 5528 5528 5527 5527 5526 5526 5526 5526 5526 5525 5525 5524 5524 5524 5523 5523 5523 5522 5521 5520 5519 5518 5517 5515 5515 5514 5513 5512 5511 5510 5508 5506 5505 5503 5501 5499 5498
5521 5520 5520 5519 5519 5519 5518 5518 5517 5517 5516 5516 5516 5515 5515 5515 5515 5514 5514 5513 5512 5511 5510 5509 5509 5508 5507 5506 5506 5505 5503 5502 5501 5499 5498 5496 5495 5494
5512 5512 5512 5511 5511 5511 5510 5510 5509 5509 5508 5508 5507 5507 5507 5507 5507 5506 5506 5505 5504 5503 5502 5501 5501 5500 5500 5500 5500 5498 5497 5496 5495 5494 5493 5492 5492 5491
5504 5504 5504 5503 5503 5503 5502 5502 5502 5501 5501 5500 5499 5499 5498 5498 5498 5498 5497 5496 5496 5495 5494 5493 5493 5492 5492 5493 5493 5492 5490 5490 5490 5489 5489 5488 5488 5488
5496 5496 5495 5495 5495 5494 5494 5494 5493 5493 5493 5492 5492 5491 5490 5490 5490 5489 5489 5488 5487 5487 5486 5485 5485 5484 5484 5485 5485 5485 5484 5484 5484 5484 5484 5485 5485 5485
5487 5487 5487 5487 5486 5486 5486 5486 5485 5485 5485 5484 5484 5483 5483 5482 5482 5481 5481 5480 5480 5479 5478 5477 5477 5477 5477 5478 5478 5478 5478 5478 5479 5479 5480 5480 5481 5482
5478 5478 5478 5478 5478 5478 5478 5477 5477 5477 5477 5477 5476 5476 5475 5475 5474 5474 5473 5473 5472 5471 5471 5470 5470 5470 5470 5471 5471 5472 5472 5473 5474 5475 5476 5476 5477 5478